EW2270 Weather Reports


Display with metric or nautical units.
time (UTC)temp
F
wind
direction
speed
MPH
gust
MPH
rain 1hr
in
rain 24hr
in
rain mn
in
humidity
%
barometer
mb
20260510104545 48 138 0.0 1.0 0.00 0.00 0.00 81 1013.4
20260510103037 46 138 1.0 2.0 0.00 0.00 0.00 84 1013.6
20260510101534 45 138 2.0 2.0 0.00 0.00 0.00 86 1013.7
20260510100030 44 138 2.0 2.0 0.00 0.00 0.00 86 1013.9
20260510094531 45 138 0.0 1.0 0.00 0.00 0.00 85 1013.9
20260510093025 45 138 0.0 3.0 0.00 0.00 0.00 85 1013.9
20260510091526 45 123 0.0 2.0 0.00 0.00 0.00 84 1013.9
20260510090020 46 123 0.0 2.0 0.00 0.00 0.00 83 1014.1
20260510084517 47 123 0.0 2.0 0.00 0.00 0.00 80 1014.3
20260510083015 47 123 2.0 0.0 0.00 0.00 0.00 80 1014.3
20260510081513 47 123 1.0 2.0 0.00 0.00 0.00 78 1014.4
20260510080011 48 123 0.0 2.0 0.00 0.00 0.00 80 1014.4
20260510074508 50 123 0.0 3.0 0.00 0.00 0.00 78 1014.4
20260510073006 50 137 0.0 1.0 0.00 0.00 0.00 77 1014.5
20260510071502 51 137 0.0 2.0 0.00 0.00 0.00 75 1014.3
20260510070000 51 137 0.0 1.0 0.00 0.00 0.00 77 1014.3
20260510064601 50 137 0.0 2.0 0.00 0.00 0.00 76 1014.5
20260510063106 51 137 0.0 1.0 0.00 0.00 0.00 77 1014.4
20260510061559 50 137 1.0 2.0 0.00 0.00 0.00 75 1014.4
20260510060101 51 137 0.0 0.0 0.00 0.00 0.00 74 1014.4
20260510054559 53 137 0.0 1.0 0.00 0.00 0.00 69 1014.4
20260510053059 52 137 0.0 1.0 0.00 0.00 0.00 71 1014.7
20260510051642 54 137 0.0 3.0 0.00 0.00 0.00 69 1014.8
20260510050054 52 213 3.0 4.0 0.00 0.00 0.00 74 1015.0
20260510044554 56 139 1.0 3.0 0.00 0.00 0.00 66 1014.8
20260510043139 56 193 0.0 1.0 0.00 0.00 0.00 68 1015.0
20260510041554 59 193 0.0 2.0 0.00 0.00 0.00 63 1015.1
20260510040051 59 194 0.0 2.0 0.00 0.00 0.00 59 1015.0
20260510034554 62 110 0.0 3.0 0.00 0.00 0.00 55 1014.9
20260510033056 65 40 4.0 7.0 0.00 0.00 0.00 47 1014.9
20260510031620 66 72 3.0 7.0 0.00 0.00 0.00 46 1014.8
20260510030052 66 64 4.0 7.0 0.00 0.00 0.00 46 1014.8
20260510024547 67 84 4.0 6.0 0.00 0.00 0.00 49 1014.8
20260510023054 68 51 3.0 6.0 0.00 0.00 0.00 48 1014.8
20260510021546 70 51 4.0 8.0 0.00 0.00 0.00 44 1015.0
20260510020048 71 45 5.0 9.0 0.00 0.00 0.00 41 1015.1
20260510014544 72 49 6.0 9.0 0.00 0.00 0.00 41 1015.1
20260510013041 72 65 6.0 10.0 0.00 0.00 0.00 39 1015.2
20260510011553 73 41 7.0 12.0 0.00 0.00 0.00 38 1015.4
20260510010044 73 37 9.0 12.0 0.00 0.00 0.00 38 1015.5
20260510004536 74 11 7.0 13.0 0.00 0.00 0.00 33 1015.5
20260510003035 75 349 5.0 8.0 0.00 0.00 0.00 27 1015.6
20260510001532 74 331 3.0 9.0 0.00 0.00 0.00 27 1015.7
20260510000029 74 327 2.0 8.0 0.00 0.00 0.00 30 1015.7
20260509234527 74 14 6.0 10.0 0.00 0.00 0.00 29 1015.9
20260509233028 74 326 6.0 10.0 0.00 0.00 0.00 33 1016.1
20260509231522 74 311 3.0 9.0 0.00 0.00 0.00 36 1016.3
20260509230021 74 16 5.0 11.0 0.00 0.00 0.00 32 1016.4
20260509224520 74 29 2.0 8.0 0.00 0.00 0.00 35 1016.5
20260509223017 74 333 3.0 11.0 0.00 0.00 0.00 33 1016.6
20260509221517 73 271 3.0 12.0 0.00 0.00 0.00 33 1016.7
20260509220014 73 25 6.0 12.0 0.00 0.00 0.00 33 1016.8
20260509214512 73 338 5.0 10.0 0.00 0.00 0.00 32 1017.0
20260509213011 72 349 6.0 10.0 0.00 0.00 0.00 34 1017.2
20260509211506 71 340 6.0 13.0 0.00 0.00 0.00 32 1017.4
20260509210004 71 269 2.0 9.0 0.00 0.00 0.00 34 1017.6
20260509204502 71 301 4.0 8.0 0.00 0.00 0.00 36 1017.7
20260509203101 70 349 3.0 8.0 0.00 0.00 0.00 37 1017.8
20260509201557 70 9 6.0 9.0 0.00 0.00 0.00 40 1017.9
20260509200056 69 5 5.0 11.0 0.00 0.00 0.00 41 1018.1
20260509194559 69 327 4.0 7.0 0.00 0.00 0.00 43 1018.2
20260509193052 69 280 0.0 4.0 0.00 0.00 0.00 41 1018.6
20260509191551 67 89 2.0 8.0 0.00 0.00 0.00 43 1018.8
20260509190052 68 354 2.0 7.0 0.00 0.00 0.00 45 1019.1
20260509184548 67 356 1.0 6.0 0.00 0.00 0.00 43 1019.3
20260509183047 67 130 1.0 4.0 0.00 0.00 0.00 45 1019.4
20260509181545 66 200 1.0 5.0 0.00 0.00 0.00 48 1019.6
20260509180039 64 309 4.0 6.0 0.00 0.00 0.00 50 1019.7
20260509174538 64 30 1.0 6.0 0.00 0.00 0.00 50 1019.9
20260509173037 63 305 2.0 8.0 0.00 0.00 0.00 52 1019.8
20260509171538 63 50 3.0 7.0 0.00 0.00 0.00 52 1019.8
20260509170037 64 4 3.0 6.0 0.00 0.00 0.00 51 1019.9
20260509164534 63 209 0.0 5.0 0.00 0.00 0.00 52 1020.1
20260509163048 63 266 1.0 2.0 0.00 0.00 0.00 49 1020.2
20260509161531 61 225 0.0 3.0 0.00 0.00 0.00 53 1020.3
20260509160030 60 257 0.0 5.0 0.00 0.00 0.00 54 1020.3
20260509154526 60 271 1.0 3.0 0.00 0.00 0.00 55 1020.4
20260509153025 59 204 2.0 4.0 0.00 0.00 0.00 56 1020.1
20260509151521 58 176 3.0 5.0 0.00 0.00 0.00 57 1020.1
20260509150017 57 210 1.0 4.0 0.00 0.00 0.00 65 1020.3
20260509144516 55 245 3.0 4.0 0.00 0.00 0.00 70 1020.3
20260509143014 56 180 0.0 2.0 0.00 0.00 0.00 72 1020.2
20260509141517 51 203 1.0 3.0 0.00 0.00 0.00 80 1020.1
20260509140011 49 115 0.0 1.0 0.00 0.00 0.00 79 1020.3
20260509134509 47 115 0.0 2.0 0.00 0.00 0.00 78 1020.3
20260509133009 47 115 0.0 2.0 0.00 0.00 0.00 77 1020.3
20260509131510 45 115 0.0 1.0 0.00 0.00 0.00 79 1020.1
20260509130012 43 115 0.0 2.0 0.00 0.00 0.00 83 1020.1
20260509124502 44 115 1.0 3.0 0.00 0.00 0.00 81 1019.8
20260509123002 48 138 4.0 6.0 0.00 0.00 0.00 74 1019.8
20260509121600 45 139 1.0 3.0 0.00 0.00 0.00 80 1019.9
20260509120058 45 141 1.0 5.0 0.00 0.00 0.00 79 1019.8
20260509114559 47 140 3.0 6.0 0.00 0.00 0.00 77 1019.7
20260509113052 46 143 2.0 4.0 0.00 0.00 0.00 77 1019.9
20260509111551 47 146 0.0 5.0 0.00 0.00 0.00 75 1019.8
20260509110054 49 150 5.0 7.0 0.00 0.00 0.00 73 1019.7